[Iaude] MPEC E64: 2024 EM1 [a=1.10,e=0.08,i=0.5,H=26.9]
    mpec at cfa.harvard.edu 
    mpec at cfa.harvard.edu
       
    Tue Mar  5 17:45:53 EST 2024
    
    
  
M.P.E.C. 2024-E64                                 Issued 2024 March 5, 22:43 UT
     The Minor Planet Electronic Circulars contain information on unusual
         minor planets, routine data on comets and natural satellites,
         and occasional editorial announcements.  They are published
    on behalf of Division F of the International Astronomical Union by the
          Minor Planet Center, Smithsonian Astrophysical Observatory,
                          Cambridge, MA 02138, U.S.A.
			  
             Prepared using the Tamkin Foundation Computer Network
                              MPC at CFA.HARVARD.EDU
            URL https://www.minorplanetcenter.net/    ISSN 1523-6714
                                    2024 EM1                                    
Observations:
     K24E01M  C2024 02 09.54569312 37 46.530+01 58 46.46         22.24GVEE064F52
     K24E01M  C2024 02 09.55751312 37 46.108+01 58 38.26         22.24GVEE064F52
     K24E01M  C2024 02 09.56936612 37 45.706+01 58 29.96         21.66GVEE064F52
     K24E01M  C2024 02 09.58120312 37 45.249+01 58 21.55         21.34GVEE064F52
     K24E01M* C2024 03 02.52568912 26 01.212-00 31 06.23         21.92wXEE064F51
     K24E01M  C2024 03 02.55042512 25 57.772-00 31 09.25         21.93wXEE064F51
     K24E01M  C2024 03 02.56280612 25 56.088-00 31 10.69         22.03wXEE064F51
     K24E01M KC2024 03 03.30816712 25 01.888-00 33 06.26         22.54GVEE064I52
     K24E01M KC2024 03 03.31281512 25 01.247-00 33 06.59         22.44GVEE064I52
     K24E01M KC2024 03 05.28325 12 22 13.16 -00 35 54.9                VEE064691
     K24E01M KC2024 03 05.30249112 22 10.312-00 35 57.01         21.89GVEE064V06
     K24E01M KC2024 03 05.30547 12 22 10.19 -00 35 56.0          22.0 RVEE064691
     K24E01M KC2024 03 05.30581012 22 09.854-00 35 57.23         21.88GVEE064V06
     K24E01M KC2024 03 05.30912812 22 09.368-00 35 57.16         20.71GVEE064V06
     K24E01M KC2024 03 05.31244712 22 08.969-00 35 57.41         21.04GVEE064V06
     K24E01M KC2024 03 05.32769 12 22 07.10 -00 35 57.7          21.1 RVEE064691
Observer details:
691 Steward Observatory, Kitt Peak-Spacewatch.  Observer J. V. Scotti.  0.9-m
    f/3 reflector + CCD.
F51 Pan-STARRS 1, Haleakala.  Observers J. Herman, T. Lowe, P. Minguez, A.
    Schultz, I. Smith.  Measurers K. Chambers, T. de Boer, J. Fairlamb, H.
    Gao, M. Huber, C.-C. Lin, E. Magnier, Y. Ramanjooloo, R. Wainscoat, R.
    Weryk.  1.8-m Ritchey-Chretien + CCD.
F52 Pan-STARRS 2, Haleakala.  Observers J. Herman, T. Lowe, P. Minguez, A.
    Schultz, I. Smith.  Measurers K. Chambers, T. de Boer, J. Fairlamb, H.
    Gao, M. Huber, C.-C. Lin, E. Magnier, Y. Ramanjooloo, R. Wainscoat, R.
    Weryk.  1.8-m Ritchey-Chretien + CCD.
I52 Steward Observatory, Mt. Lemmon Station.  Observers T. Beuden, J. K.
    Hogan.  Measurers T. Beuden, V. F. Carvajal, D. Fay, J. B. Fazekas, D. C.
    Fuls, A. R. Gibbs, A. D. Grauer, H. Groeller, J. K. Hogan, R. A. Kowalski,
    S. M. Larson, G. J. Leonard, D. Rankin, R. L. Seaman, F. C. Shelly, K. W.
    Wierzchos.  1.0-m prime focus + CCD.
V06 Catalina Sky Survey-Kuiper.  Observer J. K. Hogan.  Measurers T. Beuden,
    V. F. Carvajal, D. Fay, J. B. Fazekas, D. C. Fuls, A. R. Gibbs, A. D.
    Grauer, H. Groeller, J. K. Hogan, R. A. Kowalski, S. M. Larson, G. J.
    Leonard, D. Rankin, R. L. Seaman, F. C. Shelly, K. W. Wierzchos.  1.55-m
    reflector + 1K CCD.
Orbital elements:
2024 EM1                                                 Earth MOID = 0.0295 AU
Epoch 2024 Mar. 31.0 TT = JDT 2460400.5                 Veres                   
M  72.89231              (2000.0)            P               Q                  
n   0.85549661     Peri.  111.34459     -0.30115238     -0.95357583             
a   1.0989818      Node   356.18208     +0.87139170     -0.27493248             
e   0.0800589      Incl.    0.53521     +0.38727734     -0.12290351             
P   1.15           H   26.91          G   0.15           U   7                  
Residuals in seconds of arc
240209 F52  0.2-  0.1-    240302 F51  0.1+  0.2+    240305 V06  0.2-  0.1-
240209 F52  0.1-  0.0     240303 I52  0.0   0.5-    240305 V06  0.6-  0.2+
240209 F52  0.3+  0.1+    240303 I52  0.4-  0.3-    240305 V06  0.2+  0.2+
240209 F52  0.0   0.0     240305 691  1.7+  0.3-    240305 691  1.9+  0.1-
240302 F51  0.2+  0.0     240305 V06  0.1-  0.1-
240302 F51  0.0   0.1+    240305 691  2.2+  0.1+
Ephemeris:
2024 EM1                 a,e,i = 1.10, 0.08, 1                   q = 1.0110
Date    TT    R. A. (2000) Decl.     Delta      r    Elong.  Phase     V
2024 02 04    12 33 47.3 +03 12 57   0.05537 1.0204   127.6    50.0    22.5
...
2024 02 19    12 37 34.3 +00 29 25   0.05581 1.0322   140.9    37.2    22.2
...
2024 02 27    12 31 29.6 -00 16 20   0.05723 1.0401   150.1    28.3    22.0
...
2024 03 04    12 24 00.3 -00 32 55   0.05913 1.0466   157.8    21.0    21.9
2024 03 05    12 22 33.7 -00 34 16   0.05954 1.0477   159.1    19.7    21.9
2024 03 06    12 21 04.5 -00 35 16   0.05997 1.0488   160.4    18.5    21.9
...
2024 03 12    12 11 33.4 -00 34 52   0.06328 1.0558   168.7    10.7    21.7
...
2024 03 20    11 59 08.8 -00 26 09   0.06980 1.0656   179.3     0.6    21.4
...
2024 04 04    11 43 48.3 -00 18 50   0.08888 1.0850   161.9    16.6    22.7
M. P. C. Staff               (C) Copyright 2024 MPC           M.P.E.C. 2024-E64
    
    
More information about the Iaude
mailing list